GFSGBSN_500_temp_126.txt.gz
Temp
-13 -13 -13 -13 -13 -13 -13 -13 -13 -13 -13 -13 -13 -13 -13 -12 -12 -12 -13 -12 -13 -13 -13 -13 -13 -13 -13 -12 -12 -12 -12 -12 -12 -12 -12 -11 -11 -12 -12 -12 -12 -11 -11 -11 -11 -11 -11
-13 -13 -13 -13 -13 -13 -13 -13 -13 -13 -13 -13 -13 -13 -13 -13 -12 -12 -12 -13 -13 -12 -13 -13 -13 -13 -13 -12 -12 -12 -12 -12 -12 -12 -11 -11 -11 -11 -12 -12 -12 -11 -11 -12 -12 -12 -11
-13 -13 -13 -13 -13 -13 -13 -13 -13 -13 -13 -13 -13 -13 -13 -13 -13 -13 -12 -13 -13 -13 -13 -13 -13 -12 -12 -12 -12 -12 -12 -12 -12 -12 -12 -12 -12 -12 -12 -12 -11 -11 -12 -12 -12 -12 -11
-14 -13 -13 -13 -14 -14 -13 -13 -13 -13 -13 -13 -13 -13 -13 -13 -13 -13 -13 -13 -13 -13 -13 -13 -13 -12 -12 -12 -12 -12 -12 -12 -12 -12 -11 -11 -12 -12 -12 -12 -11 -12 -12 -13 -12 -12 -13
-14 -14 -14 -14 -14 -14 -14 -14 -14 -14 -13 -13 -13 -13 -13 -13 -13 -13 -13 -13 -13 -13 -13 -13 -13 -13 -12 -12 -12 -12 -12 -12 -12 -12 -12 -12 -12 -12 -12 -12 -13 -12 -13 -13 -13 -13 -13
-14 -14 -14 -14 -14 -14 -14 -14 -14 -14 -14 -13 -13 -13 -13 -13 -13 -13 -13 -13 -13 -13 -13 -13 -13 -13 -13 -13 -12 -12 -12 -12 -12 -12 -12 -12 -12 -12 -13 -13 -13 -13 -13 -13 -14 -13 -13
-15 -15 -14 -14 -14 -14 -14 -14 -14 -14 -14 -14 -14 -14 -13 -13 -13 -14 -14 -13 -13 -13 -13 -13 -13 -13 -13 -13 -12 -12 -12 -12 -12 -12 -12 -13 -13 -13 -14 -14 -14 -14 -14 -13 -13 -13 -13
-16 -15 -15 -15 -14 -15 -14 -14 -14 -14 -15 -15 -14 -14 -15 -15 -14 -14 -14 -14 -14 -14 -14 -14 -14 -14 -13 -13 -12 -13 -13 -13 -13 -13 -13 -13 -14 -14 -14 -14 -14 -14 -14 -13 -13 -14 -14
-16 -16 -16 -15 -15 -15 -15 -15 -14 -15 -15 -15 -16 -16 -16 -16 -16 -15 -16 -16 -16 -16 -15 -15 -14 -14 -14 -14 -13 -13 -14 -13 -13 -13 -14 -14 -15 -15 -15 -14 -14 -14 -14 -14 -13 -15 -18
-17 -17 -17 -17 -17 -16 -16 -16 -16 -17 -16 -17 -17 -17 -17 -17 -17 -17 -17 -17 -17 -16 -16 -15 -15 -14 -14 -14 -14 -14 -14 -14 -14 -14 -15 -15 -15 -15 -15 -15 -14 -15 -17 -17 -18 -18 -19
-19 -19 -19 -19 -19 -18 -18 -18 -19 -19 -19 -18 -18 -19 -19 -18 -19 -18 -18 -18 -17 -16 -16 -16 -14 -14 -14 -14 -14 -14 -14 -14 -15 -15 -16 -15 -15 -15 -15 -15 -16 -18 -19 -19 -20 -20 -21
-20 -19 -19 -19 -20 -19 -19 -20 -20 -19 -19 -19 -19 -20 -19 -20 -19 -19 -19 -18 -18 -17 -16 -16 -16 -15 -15 -15 -15 -15 -15 -15 -16 -16 -16 -16 -16 -16 -16 -17 -19 -19 -19 -20 -20 -21 -22
-20 -20 -20 -20 -20 -20 -20 -19 -19 -20 -19 -19 -20 -21 -20 -21 -20 -20 -18 -19 -17 -17 -16 -16 -16 -16 -15 -15 -16 -15 -15 -16 -16 -16 -16 -16 -17 -17 -18 -19 -19 -19 -20 -20 -21 -21 -22
-21 -20 -20 -20 -20 -20 -20 -20 -19 -19 -19 -20 -20 -20 -20 -21 -20 -21 -20 -20 -19 -17 -17 -17 -16 -17 -16 -16 -16 -16 -16 -16 -16 -16 -16 -17 -17 -18 -19 -20 -20 -19 -20 -20 -21 -21 -21
-21 -20 -20 -20 -20 -20 -20 -20 -20 -20 -20 -20 -21 -21 -21 -21 -21 -21 -20 -19 -18 -18 -17 -17 -17 -17 -16 -16 -16 -16 -16 -16 -17 -17 -17 -17 -19 -19 -20 -20 -20 -20 -20 -20 -21 -21 -21
-21 -20 -20 -20 -19 -19 -19 -19 -19 -19 -20 -21 -21 -21 -21 -21 -21 -21 -20 -21 -19 -18 -18 -17 -17 -17 -17 -17 -17 -17 -17 -17 -17 -16 -17 -18 -19 -20 -20 -20 -20 -20 -20 -20 -20 -21 -21
-21 -20 -19 -20 -19 -18 -19 -19 -20 -20 -20 -20 -21 -21 -21 -21 -21 -20 -20 -19 -19 -18 -18 -17 -17 -17 -17 -17 -17 -17 -17 -17 -17 -17 -17 -18 -20 -20 -20 -20 -20 -20 -20 -20 -21 -20 -21
-22 -21 -20 -19 -18 -19 -19 -19 -20 -20 -20 -21 -21 -21 -20 -20 -21 -20 -19 -19 -20 -19 -18 -18 -17 -17 -17 -18 -18 -18 -18 -17 -17 -17 -17 -19 -20 -20 -21 -20 -20 -20 -20 -21 -21 -20 -20
-23 -22 -21 -19 -20 -19 -19 -20 -20 -20 -21 -21 -21 -21 -21 -21 -20 -20 -19 -19 -19 -19 -19 -18 -18 -18 -19 -19 -19 -18 -18 -18 -18 -18 -18 -20 -20 -20 -20 -20 -20 -20 -20 -21 -21 -20 -20
-23 -23 -22 -22 -21 -20 -21 -21 -21 -21 -21 -21 -21 -21 -21 -20 -19 -19 -19 -19 -19 -19 -19 -19 -19 -19 -20 -20 -19 -19 -18 -18 -18 -18 -19 -20 -21 -20 -20 -20 -20 -20 -20 -20 -20 -20 -20
-24 -23 -22 -22 -22 -21 -21 -20 -20 -20 -21 -21 -21 -20 -19 -19 -19 -19 -19 -19 -19 -19 -19 -19 -19 -21 -21 -21 -20 -19 -19 -18 -19 -19 -20 -21 -21 -20 -20 -19 -20 -20 -20 -20 -20 -20 -20
-24 -23 -22 -22 -22 -22 -21 -21 -20 -20 -21 -20 -20 -20 -20 -20 -19 -19 -19 -19 -19 -19 -20 -20 -21 -22 -21 -21 -19 -19 -19 -19 -19 -20 -21 -22 -21 -21 -21 -20 -20 -20 -20 -20 -20 -20 -19
-24 -23 -22 -22 -22 -22 -22 -21 -20 -20 -20 -20 -20 -20 -20 -19 -19 -19 -20 -20 -20 -20 -21 -21 -21 -22 -21 -20 -20 -20 -20 -20 -20 -20 -21 -22 -21 -21 -21 -22 -21 -21 -20 -21 -20 -20 -20
-24 -23 -23 -22 -22 -22 -21 -21 -21 -20 -20 -20 -20 -20 -19 -20 -20 -20 -21 -21 -21 -21 -22 -23 -22 -22 -21 -20 -20 -20 -20 -20 -20 -21 -21 -22 -21 -22 -22 -22 -22 -21 -21 -20 -20 -21 -21
-24 -24 -23 -23 -22 -22 -22 -22 -21 -21 -20 -20 -21 -21 -20 -20 -21 -21 -22 -22 -22 -23 -23 -22 -22 -21 -21 -20 -20 -20 -21 -21 -21 -21 -21 -22 -22 -22 -22 -22 -22 -22 -21 -21 -21 -21 -21
-24 -24 -23 -23 -23 -22 -22 -22 -22 -22 -22 -21 -21 -20 -21 -22 -22 -22 -23 -23 -23 -23 -22 -23 -22 -21 -21 -21 -21 -21 -21 -21 -21 -21 -22 -22 -22 -22 -22 -22 -22 -22 -22 -21 -21 -21 -21
-25 -24 -24 -24 -23 -24 -24 -23 -23 -23 -22 -21 -21 -21 -22 -23 -24 -23 -23 -23 -23 -23 -22 -22 -21 -21 -21 -21 -21 -21 -21 -22 -22 -22 -22 -23 -23 -23 -22 -22 -22 -22 -22 -22 -21 -21 -21
-25 -25 -25 -24 -24 -25 -25 -24 -23 -23 -23 -22 -22 -22 -23 -24 -24 -24 -23 -24 -24 -23 -22 -22 -21 -21 -21 -21 -21 -21 -22 -22 -22 -22 -23 -23 -23 -23 -23 -23 -23 -22 -22 -22 -22 -22 -22
-25 -25 -25 -24 -25 -25 -25 -24 -24 -24 -23 -23 -23 -24 -24 -24 -24 -24 -24 -24 -24 -23 -22 -22 -22 -21 -21 -21 -21 -22 -22 -22 -23 -23 -23 -24 -24 -24 -24 -23 -23 -23 -23 -22 -23 -22 -22

GFSGBSN_500_temp_129.txt.gz
Temp
-13 -13 -13 -13 -13 -13 -13 -13 -13 -13 -13 -13 -13 -13 -13 -13 -13 -13 -13 -12 -12 -13 -12 -12 -12 -12 -12 -12 -12 -12 -12 -12 -12 -12 -12 -12 -12 -12 -11 -11 -11 -11 -11 -11 -11 -11 -11
-13 -13 -13 -13 -13 -13 -13 -13 -13 -13 -13 -13 -13 -13 -13 -13 -13 -13 -13 -13 -13 -13 -12 -12 -12 -12 -12 -12 -12 -12 -12 -12 -12 -12 -12 -12 -12 -12 -11 -11 -11 -11 -11 -11 -11 -11 -11
-14 -14 -14 -14 -13 -13 -13 -13 -13 -13 -13 -13 -13 -13 -13 -13 -13 -13 -13 -13 -13 -13 -13 -13 -12 -12 -12 -12 -12 -12 -12 -12 -12 -12 -12 -12 -12 -12 -12 -12 -11 -11 -11 -12 -12 -11 -11
-14 -14 -14 -14 -14 -14 -13 -13 -13 -13 -13 -13 -13 -13 -13 -13 -13 -13 -13 -13 -13 -13 -13 -13 -13 -13 -12 -13 -12 -12 -12 -12 -12 -12 -12 -12 -11 -11 -11 -11 -11 -11 -12 -12 -11 -11 -12
-14 -14 -14 -14 -14 -14 -14 -14 -14 -14 -14 -13 -13 -13 -13 -13 -13 -13 -13 -13 -13 -13 -13 -13 -13 -13 -12 -13 -13 -13 -12 -12 -12 -12 -12 -12 -12 -12 -11 -11 -12 -12 -12 -12 -12 -12 -11
-15 -15 -14 -14 -14 -14 -14 -14 -14 -14 -14 -14 -14 -14 -14 -13 -13 -13 -13 -14 -13 -14 -14 -13 -13 -13 -12 -12 -13 -13 -12 -12 -12 -12 -12 -12 -12 -12 -12 -12 -12 -13 -13 -13 -13 -13 -13
-15 -15 -15 -15 -15 -15 -14 -14 -14 -14 -14 -14 -14 -14 -14 -14 -14 -14 -13 -14 -14 -14 -13 -14 -13 -13 -12 -12 -12 -12 -12 -12 -12 -12 -12 -12 -12 -12 -12 -12 -12 -13 -14 -14 -14 -14 -13
-16 -16 -15 -15 -15 -15 -15 -14 -14 -14 -14 -14 -14 -14 -15 -15 -15 -14 -14 -14 -14 -15 -14 -14 -14 -14 -13 -13 -13 -12 -12 -12 -12 -12 -12 -12 -13 -13 -13 -13 -13 -14 -14 -14 -14 -14 -13
-17 -16 -16 -16 -16 -16 -15 -15 -15 -15 -14 -14 -14 -15 -15 -15 -15 -15 -15 -16 -16 -16 -16 -15 -15 -15 -14 -14 -13 -13 -13 -13 -13 -13 -13 -13 -13 -13 -13 -13 -14 -14 -14 -14 -14 -14 -15
-17 -17 -17 -16 -16 -16 -16 -16 -15 -15 -15 -15 -15 -15 -16 -16 -16 -16 -17 -17 -17 -17 -16 -16 -16 -16 -14 -15 -14 -13 -14 -14 -14 -14 -13 -13 -13 -14 -14 -14 -15 -15 -15 -15 -15 -15 -17
-19 -19 -18 -18 -18 -17 -17 -17 -16 -16 -16 -17 -17 -17 -18 -19 -19 -18 -18 -18 -17 -18 -16 -17 -16 -15 -15 -15 -14 -15 -14 -14 -14 -14 -14 -14 -14 -15 -15 -15 -15 -15 -15 -15 -16 -17 -18
-20 -20 -19 -19 -19 -19 -19 -19 -18 -18 -17 -18 -19 -19 -20 -21 -20 -19 -19 -19 -19 -18 -18 -18 -17 -16 -16 -16 -15 -15 -15 -15 -15 -15 -15 -15 -15 -15 -16 -16 -15 -16 -16 -17 -18 -19 -19
-21 -20 -20 -20 -20 -20 -20 -19 -19 -19 -20 -20 -20 -20 -20 -21 -21 -20 -20 -20 -20 -20 -19 -18 -18 -17 -17 -16 -16 -16 -16 -16 -15 -16 -15 -15 -16 -16 -16 -16 -16 -17 -18 -19 -19 -21 -20
-21 -21 -21 -20 -20 -20 -20 -20 -20 -20 -20 -21 -20 -20 -20 -21 -21 -20 -20 -20 -21 -20 -20 -19 -18 -18 -17 -16 -16 -16 -17 -16 -16 -16 -16 -17 -16 -16 -16 -17 -17 -17 -19 -19 -19 -20 -20
-22 -21 -21 -21 -21 -21 -21 -20 -20 -20 -20 -21 -20 -19 -20 -21 -21 -20 -20 -21 -20 -20 -20 -19 -19 -19 -18 -18 -17 -17 -17 -17 -16 -17 -17 -17 -17 -16 -16 -17 -18 -18 -19 -19 -19 -20 -20
-22 -22 -21 -21 -21 -21 -21 -20 -20 -20 -20 -20 -20 -20 -20 -21 -21 -21 -21 -20 -20 -20 -20 -19 -19 -19 -18 -18 -17 -17 -16 -17 -17 -18 -17 -17 -17 -17 -17 -18 -18 -19 -20 -19 -20 -20 -20
-23 -22 -22 -21 -22 -21 -21 -20 -19 -19 -20 -20 -20 -21 -21 -21 -21 -21 -21 -20 -21 -21 -20 -20 -20 -19 -18 -18 -17 -18 -17 -18 -18 -18 -17 -17 -17 -17 -18 -18 -19 -19 -20 -20 -20 -20 -20
-23 -23 -22 -22 -22 -21 -20 -19 -19 -19 -20 -20 -21 -21 -21 -21 -21 -21 -21 -21 -21 -20 -21 -21 -20 -20 -18 -18 -17 -17 -18 -19 -18 -18 -17 -17 -18 -18 -19 -19 -19 -20 -20 -20 -20 -21 -20
-24 -24 -23 -22 -22 -21 -19 -19 -19 -19 -20 -20 -20 -20 -21 -21 -21 -21 -21 -21 -21 -21 -20 -20 -21 -20 -19 -19 -18 -18 -19 -19 -19 -18 -17 -17 -18 -19 -19 -19 -19 -20 -20 -19 -20 -20 -20
-25 -24 -23 -23 -22 -21 -21 -20 -20 -20 -20 -20 -20 -20 -21 -21 -21 -21 -21 -21 -21 -21 -20 -20 -20 -20 -20 -19 -19 -20 -20 -19 -18 -18 -18 -18 -18 -19 -19 -20 -20 -20 -20 -19 -20 -20 -20
-25 -24 -24 -22 -22 -20 -21 -22 -21 -20 -20 -20 -20 -21 -20 -20 -20 -21 -21 -21 -21 -21 -20 -20 -20 -20 -20 -20 -21 -21 -20 -19 -19 -18 -18 -18 -19 -19 -20 -20 -21 -20 -19 -19 -20 -20 -20
-25 -24 -24 -23 -22 -21 -21 -22 -21 -21 -20 -21 -21 -21 -21 -21 -21 -21 -21 -20 -21 -20 -20 -20 -20 -21 -19 -20 -21 -21 -21 -20 -19 -18 -18 -18 -19 -20 -20 -21 -21 -20 -20 -20 -20 -20 -20
-25 -25 -24 -23 -23 -22 -22 -21 -21 -21 -21 -21 -21 -21 -21 -21 -21 -21 -21 -20 -20 -20 -20 -20 -20 -20 -20 -20 -21 -22 -21 -20 -19 -19 -19 -19 -19 -20 -21 -21 -20 -20 -20 -20 -20 -20 -20
-25 -25 -24 -23 -23 -22 -22 -22 -21 -21 -21 -20 -21 -20 -20 -20 -20 -20 -20 -20 -20 -20 -20 -21 -20 -20 -21 -22 -22 -21 -20 -20 -20 -19 -19 -19 -20 -21 -21 -21 -21 -21 -20 -21 -20 -20 -20
-25 -25 -24 -24 -23 -22 -22 -22 -21 -20 -20 -20 -20 -20 -20 -20 -21 -20 -20 -20 -20 -20 -21 -21 -21 -22 -23 -23 -21 -21 -20 -20 -20 -20 -19 -20 -20 -21 -22 -21 -21 -21 -21 -21 -21 -21 -21
-25 -25 -24 -24 -23 -22 -22 -22 -22 -21 -21 -20 -20 -20 -20 -20 -20 -21 -21 -20 -21 -21 -21 -22 -23 -23 -23 -22 -21 -21 -20 -20 -20 -20 -20 -20 -20 -21 -22 -22 -22 -21 -21 -21 -22 -21 -21
-26 -25 -24 -24 -23 -22 -22 -22 -22 -22 -21 -21 -20 -20 -21 -21 -21 -21 -21 -21 -22 -22 -22 -23 -23 -23 -22 -21 -21 -21 -21 -20 -20 -20 -20 -21 -21 -21 -22 -22 -22 -22 -22 -21 -22 -22 -21
-26 -25 -24 -24 -23 -23 -23 -23 -22 -22 -22 -22 -21 -21 -21 -21 -21 -21 -21 -23 -23 -22 -23 -23 -23 -22 -22 -21 -21 -21 -21 -21 -21 -21 -21 -21 -21 -22 -22 -23 -23 -22 -22 -22 -22 -22 -22
-26 -25 -25 -25 -24 -23 -24 -23 -24 -23 -23 -23 -22 -22 -21 -21 -22 -22 -23 -23 -23 -23 -23 -23 -22 -22 -22 -21 -21 -21 -21 -21 -21 -21 -21 -22 -22 -23 -23 -23 -23 -23 -23 -22 -22 -22 -22

GFSGBSN_500_temp_132.txt.gz
Temp
-13 -13 -13 -13 -13 -13 -13 -13 -13 -13 -13 -13 -13 -13 -13 -13 -13 -13 -13 -13 -13 -13 -13 -12 -12 -11 -11 -11 -11 -11 -12 -12 -12 -12 -12 -12 -11 -11 -11 -11 -12 -12 -11 -12 -12 -11 -11
-14 -14 -14 -14 -14 -14 -14 -14 -13 -13 -13 -13 -13 -13 -13 -13 -13 -13 -13 -13 -13 -13 -13 -13 -12 -12 -12 -12 -12 -12 -12 -11 -12 -12 -12 -12 -12 -11 -11 -11 -11 -11 -11 -11 -11 -11 -11
-14 -14 -14 -14 -14 -14 -14 -14 -14 -14 -13 -13 -13 -13 -13 -13 -13 -13 -13 -13 -13 -13 -13 -13 -13 -12 -12 -12 -12 -12 -12 -12 -12 -12 -12 -12 -12 -12 -12 -12 -12 -12 -12 -12 -12 -11 -11
-15 -15 -15 -14 -14 -14 -14 -14 -14 -14 -14 -13 -13 -13 -13 -13 -13 -13 -13 -13 -13 -13 -13 -13 -13 -13 -12 -13 -12 -12 -12 -12 -12 -12 -12 -12 -12 -12 -12 -12 -12 -12 -11 -11 -11 -11 -11
-15 -15 -15 -15 -15 -14 -14 -14 -14 -14 -14 -14 -14 -14 -14 -14 -13 -13 -13 -13 -13 -13 -13 -13 -13 -13 -13 -13 -13 -13 -12 -12 -12 -12 -12 -12 -12 -12 -12 -12 -12 -12 -11 -12 -11 -11 -11
-15 -15 -15 -15 -15 -15 -15 -15 -15 -15 -14 -14 -14 -14 -14 -14 -14 -14 -14 -13 -13 -13 -13 -13 -13 -13 -13 -12 -13 -13 -13 -13 -12 -12 -12 -12 -12 -12 -12 -12 -12 -12 -12 -12 -12 -12 -12
-15 -15 -15 -15 -15 -15 -15 -15 -15 -15 -15 -15 -15 -14 -15 -14 -14 -14 -14 -14 -14 -14 -13 -14 -13 -13 -13 -13 -13 -13 -13 -13 -13 -12 -12 -12 -12 -12 -12 -12 -12 -12 -12 -13 -13 -13 -13
-16 -16 -16 -15 -16 -15 -15 -15 -15 -15 -15 -15 -15 -15 -15 -15 -15 -14 -14 -14 -14 -14 -14 -14 -14 -13 -14 -13 -13 -13 -13 -13 -13 -13 -13 -13 -13 -12 -12 -12 -12 -13 -13 -13 -13 -13 -13
-16 -16 -16 -16 -16 -16 -16 -16 -16 -16 -16 -15 -15 -15 -15 -15 -15 -15 -15 -15 -14 -15 -15 -14 -15 -14 -15 -14 -13 -14 -13 -14 -14 -13 -14 -13 -13 -13 -13 -12 -13 -13 -13 -14 -14 -14 -14
-17 -17 -16 -16 -16 -16 -16 -16 -16 -16 -16 -16 -16 -15 -15 -16 -17 -16 -16 -16 -16 -17 -17 -14 -15 -15 -15 -14 -14 -15 -13 -14 -14 -14 -14 -14 -14 -13 -13 -13 -13 -14 -13 -14 -14 -15 -14
-18 -18 -18 -17 -17 -17 -17 -17 -17 -16 -16 -16 -16 -16 -15 -18 -18 -16 -17 -16 -18 -19 -20 -16 -15 -15 -15 -15 -15 -15 -15 -14 -15 -15 -15 -15 -14 -14 -14 -14 -14 -14 -14 -15 -15 -15 -15
-19 -19 -19 -19 -19 -19 -19 -18 -18 -18 -18 -18 -17 -18 -17 -19 -20 -18 -18 -19 -20 -20 -20 -18 -16 -16 -16 -16 -16 -16 -16 -15 -15 -16 -15 -16 -15 -15 -15 -14 -14 -15 -16 -16 -15 -15 -15
-20 -20 -20 -20 -20 -20 -20 -20 -20 -19 -19 -19 -19 -19 -19 -21 -21 -20 -20 -21 -21 -22 -18 -19 -18 -18 -18 -17 -17 -17 -16 -16 -16 -16 -16 -17 -16 -15 -15 -15 -15 -16 -16 -16 -16 -16 -16
-21 -21 -21 -21 -21 -21 -21 -21 -21 -21 -20 -21 -21 -21 -20 -21 -21 -21 -21 -21 -22 -20 -20 -19 -19 -19 -19 -19 -18 -18 -17 -17 -17 -16 -18 -17 -17 -16 -16 -16 -16 -16 -16 -17 -16 -18 -19
-21 -21 -21 -21 -21 -21 -21 -21 -22 -21 -21 -21 -22 -22 -21 -21 -21 -21 -22 -22 -21 -20 -20 -20 -20 -20 -20 -19 -18 -18 -18 -18 -17 -17 -17 -17 -18 -16 -16 -17 -17 -17 -17 -17 -18 -19 -19
-22 -21 -21 -21 -21 -21 -21 -22 -22 -22 -22 -22 -22 -22 -21 -21 -21 -21 -22 -21 -20 -20 -20 -22 -21 -19 -19 -20 -19 -20 -19 -18 -18 -17 -17 -18 -19 -17 -18 -17 -17 -17 -17 -18 -19 -19 -19
-22 -22 -22 -22 -22 -22 -22 -22 -22 -22 -21 -22 -22 -21 -21 -21 -21 -21 -22 -21 -20 -20 -20 -20 -20 -20 -20 -20 -20 -20 -19 -19 -18 -18 -18 -18 -19 -19 -18 -18 -18 -17 -18 -19 -19 -19 -19
-23 -22 -22 -22 -22 -22 -23 -22 -22 -22 -21 -21 -21 -21 -20 -21 -22 -21 -21 -21 -20 -21 -21 -21 -21 -21 -20 -21 -21 -21 -19 -19 -19 -19 -19 -21 -21 -19 -19 -18 -19 -18 -18 -19 -19 -19 -20
-23 -23 -22 -22 -22 -22 -23 -22 -21 -21 -21 -21 -21 -21 -21 -21 -21 -21 -21 -21 -21 -21 -21 -21 -21 -21 -20 -21 -21 -20 -20 -20 -19 -20 -21 -20 -19 -19 -19 -19 -18 -19 -19 -20 -19 -19 -19
-24 -23 -23 -23 -22 -22 -23 -22 -21 -20 -19 -20 -20 -20 -20 -20 -21 -21 -21 -21 -21 -21 -21 -21 -21 -21 -21 -21 -21 -20 -20 -19 -20 -21 -22 -20 -19 -19 -19 -19 -19 -19 -19 -20 -20 -19 -19
-24 -23 -23 -23 -23 -22 -22 -21 -21 -20 -19 -19 -20 -19 -19 -19 -20 -20 -21 -21 -21 -21 -21 -21 -21 -21 -21 -20 -21 -21 -20 -20 -22 -21 -20 -20 -20 -19 -19 -19 -19 -20 -20 -19 -19 -19 -19
-24 -24 -23 -23 -23 -23 -22 -22 -21 -21 -20 -20 -20 -19 -20 -20 -20 -20 -21 -21 -21 -21 -21 -21 -21 -21 -21 -21 -21 -20 -20 -22 -22 -21 -20 -20 -20 -20 -19 -19 -20 -20 -21 -20 -20 -19 -19
-25 -24 -24 -24 -23 -23 -23 -22 -22 -22 -21 -21 -20 -21 -21 -21 -21 -21 -21 -21 -21 -21 -21 -21 -21 -21 -20 -20 -21 -20 -21 -21 -21 -21 -21 -20 -20 -19 -19 -20 -20 -20 -21 -21 -20 -20 -20
-25 -25 -24 -24 -24 -23 -23 -22 -21 -22 -22 -22 -21 -21 -21 -21 -21 -21 -21 -22 -22 -21 -21 -21 -21 -21 -20 -21 -22 -21 -22 -21 -22 -21 -20 -20 -20 -19 -20 -20 -20 -20 -21 -21 -21 -21 -20
-26 -26 -25 -24 -24 -24 -23 -22 -21 -21 -22 -21 -21 -22 -21 -21 -21 -21 -21 -21 -21 -21 -21 -21 -21 -21 -21 -21 -22 -22 -22 -22 -21 -21 -20 -20 -20 -20 -20 -20 -20 -21 -21 -21 -21 -21 -21
-26 -26 -25 -25 -24 -24 -23 -22 -22 -21 -21 -22 -21 -21 -21 -21 -21 -21 -21 -21 -21 -21 -21 -20 -20 -21 -22 -22 -22 -22 -22 -22 -21 -21 -20 -20 -20 -20 -20 -21 -21 -21 -22 -22 -21 -21 -21
-26 -26 -26 -25 -24 -23 -23 -22 -22 -22 -22 -22 -21 -21 -21 -21 -21 -21 -20 -21 -21 -21 -21 -21 -21 -22 -22 -23 -23 -23 -22 -21 -21 -21 -20 -20 -20 -20 -20 -21 -21 -21 -22 -22 -22 -21 -21
-26 -26 -26 -25 -24 -24 -23 -22 -22 -22 -22 -22 -21 -21 -21 -20 -20 -20 -20 -21 -21 -21 -21 -21 -21 -22 -23 -23 -23 -22 -21 -21 -21 -20 -20 -20 -20 -20 -20 -21 -21 -22 -22 -22 -22 -22 -22
-27 -26 -26 -25 -25 -24 -23 -22 -22 -22 -22 -22 -22 -22 -20 -20 -21 -21 -21 -20 -21 -20 -21 -22 -24 -23 -23 -23 -22 -22 -21 -21 -21 -21 -20 -20 -20 -20 -21 -21 -22 -23 -23 -23 -23 -23 -22

GFSGBSN_500_temp_135.txt.gz
Temp
-13 -13 -13 -13 -13 -13 -13 -14 -14 -13 -13 -13 -13 -13 -13 -13 -13 -13 -13 -13 -13 -13 -13 -12 -12 -12 -12 -11 -12 -12 -12 -12 -12 -12 -12 -11 -11 -12 -12 -12 -11 -11 -11 -12 -12 -11 -11
-13 -14 -14 -14 -14 -14 -14 -14 -14 -13 -13 -13 -13 -13 -13 -13 -13 -13 -13 -13 -13 -13 -13 -13 -12 -12 -12 -12 -12 -12 -12 -12 -12 -12 -12 -11 -11 -11 -12 -12 -11 -12 -11 -11 -11 -11 -11
-14 -14 -14 -14 -14 -14 -14 -14 -14 -14 -14 -14 -14 -13 -13 -14 -14 -13 -13 -13 -13 -13 -13 -13 -13 -13 -12 -12 -12 -12 -12 -12 -12 -12 -12 -12 -12 -12 -12 -12 -12 -12 -12 -12 -12 -12 -12
-15 -15 -15 -15 -15 -15 -14 -14 -14 -14 -14 -14 -14 -14 -14 -14 -14 -14 -14 -13 -13 -13 -13 -13 -13 -13 -13 -13 -13 -12 -12 -12 -12 -12 -12 -12 -12 -12 -12 -12 -12 -12 -12 -12 -12 -12 -11
-16 -16 -16 -15 -15 -15 -15 -15 -15 -15 -14 -14 -14 -14 -14 -14 -14 -14 -14 -14 -14 -14 -13 -13 -13 -13 -13 -13 -13 -13 -13 -13 -13 -12 -13 -12 -12 -12 -12 -12 -12 -12 -12 -12 -12 -11 -11
-16 -16 -16 -16 -16 -15 -15 -15 -15 -15 -15 -15 -15 -14 -14 -14 -15 -15 -14 -14 -14 -14 -14 -13 -13 -13 -13 -12 -13 -13 -13 -13 -13 -13 -13 -12 -12 -12 -13 -12 -12 -13 -12 -12 -12 -12 -12
-16 -16 -16 -16 -16 -16 -16 -15 -15 -15 -15 -15 -15 -15 -15 -15 -15 -14 -14 -14 -14 -14 -14 -14 -13 -13 -13 -13 -13 -13 -13 -13 -13 -13 -13 -13 -12 -13 -13 -12 -13 -13 -12 -12 -12 -13 -13
-16 -16 -16 -16 -16 -16 -16 -16 -16 -16 -16 -16 -16 -15 -15 -15 -15 -15 -15 -15 -14 -14 -14 -14 -14 -13 -13 -13 -12 -13 -13 -13 -13 -13 -13 -13 -12 -13 -13 -13 -13 -13 -12 -13 -12 -13 -13
-17 -17 -17 -17 -16 -16 -16 -16 -16 -16 -16 -16 -16 -15 -15 -16 -15 -15 -15 -15 -15 -15 -15 -14 -14 -14 -14 -14 -13 -12 -13 -13 -14 -13 -14 -13 -13 -13 -13 -13 -13 -13 -13 -13 -13 -13 -13
-17 -17 -17 -17 -17 -17 -16 -16 -16 -16 -16 -16 -16 -16 -16 -16 -16 -16 -16 -16 -16 -16 -16 -14 -14 -14 -14 -15 -13 -13 -14 -13 -13 -14 -15 -14 -14 -14 -14 -13 -14 -14 -14 -14 -14 -14 -14
-18 -18 -17 -17 -17 -17 -17 -17 -17 -17 -17 -17 -17 -16 -16 -16 -16 -17 -17 -17 -17 -18 -18 -15 -14 -13 -14 -15 -15 -14 -15 -14 -14 -14 -16 -14 -15 -15 -15 -14 -15 -14 -15 -15 -15 -15 -14
-18 -18 -18 -18 -18 -18 -18 -18 -18 -18 -18 -18 -18 -17 -17 -17 -17 -19 -19 -19 -19 -20 -18 -16 -14 -14 -14 -15 -16 -16 -15 -15 -15 -15 -16 -15 -16 -15 -15 -16 -16 -16 -16 -15 -16 -16 -14
-19 -19 -19 -19 -19 -19 -19 -19 -19 -20 -20 -20 -19 -19 -18 -18 -20 -20 -20 -20 -21 -21 -18 -16 -16 -16 -16 -16 -17 -18 -18 -17 -16 -17 -17 -17 -16 -16 -16 -16 -16 -17 -17 -16 -16 -16 -15
-20 -20 -20 -20 -20 -20 -20 -20 -20 -20 -20 -21 -21 -20 -20 -19 -20 -21 -21 -22 -22 -19 -19 -19 -20 -19 -19 -19 -18 -19 -19 -18 -18 -18 -18 -17 -16 -17 -16 -17 -17 -17 -17 -17 -17 -16 -16
-21 -21 -21 -20 -20 -20 -20 -21 -21 -21 -21 -21 -21 -21 -21 -21 -21 -21 -22 -22 -22 -21 -20 -21 -21 -20 -19 -19 -19 -19 -19 -19 -19 -18 -18 -18 -17 -17 -17 -18 -17 -18 -18 -18 -17 -17 -16
-21 -21 -21 -21 -21 -21 -21 -21 -21 -21 -22 -22 -22 -22 -22 -22 -22 -22 -22 -22 -21 -21 -21 -21 -21 -21 -20 -20 -20 -20 -20 -20 -20 -19 -20 -19 -18 -18 -18 -18 -18 -20 -19 -18 -18 -17 -17
-22 -21 -21 -21 -21 -21 -21 -21 -21 -21 -22 -22 -22 -22 -21 -22 -23 -23 -22 -21 -21 -21 -22 -21 -21 -21 -20 -20 -21 -20 -20 -21 -21 -20 -20 -19 -19 -20 -19 -17 -20 -21 -19 -18 -18 -18 -18
-22 -22 -22 -22 -22 -22 -21 -22 -22 -22 -22 -22 -23 -22 -22 -22 -23 -22 -21 -20 -21 -21 -22 -21 -21 -21 -21 -21 -21 -20 -21 -21 -21 -21 -20 -20 -19 -19 -19 -19 -20 -20 -19 -19 -18 -19 -19
-23 -22 -22 -22 -22 -22 -22 -22 -22 -22 -22 -22 -23 -23 -22 -22 -22 -21 -21 -21 -21 -22 -22 -21 -21 -21 -21 -21 -21 -21 -21 -22 -21 -21 -20 -20 -19 -20 -19 -20 -21 -20 -19 -19 -19 -19 -20
-23 -23 -23 -22 -22 -22 -22 -22 -22 -22 -22 -22 -22 -22 -22 -21 -21 -22 -22 -21 -21 -22 -22 -22 -22 -21 -21 -21 -21 -21 -22 -21 -21 -21 -21 -20 -20 -20 -20 -20 -20 -20 -19 -20 -20 -20 -20
-24 -24 -23 -23 -23 -23 -23 -22 -22 -22 -22 -22 -22 -21 -21 -20 -20 -20 -20 -21 -21 -21 -22 -22 -21 -21 -21 -21 -22 -21 -21 -21 -21 -21 -21 -21 -21 -22 -20 -20 -20 -20 -20 -19 -20 -20 -20
-25 -24 -24 -24 -23 -23 -23 -23 -22 -22 -22 -22 -22 -21 -20 -20 -20 -21 -21 -21 -21 -21 -22 -21 -21 -21 -21 -22 -22 -21 -21 -21 -21 -21 -21 -22 -22 -22 -21 -21 -20 -20 -19 -21 -21 -21 -20
-25 -25 -24 -24 -24 -23 -23 -23 -22 -23 -22 -22 -22 -21 -20 -21 -21 -21 -21 -21 -21 -21 -21 -21 -21 -22 -22 -22 -22 -21 -21 -21 -20 -22 -22 -23 -21 -21 -21 -21 -20 -19 -21 -20 -21 -21 -20
-26 -25 -24 -24 -24 -23 -23 -23 -23 -23 -22 -22 -22 -22 -21 -21 -21 -21 -21 -21 -21 -21 -21 -21 -21 -21 -22 -22 -22 -21 -21 -21 -22 -23 -23 -22 -22 -21 -21 -21 -19 -20 -20 -21 -21 -21 -21
-26 -26 -25 -25 -24 -24 -24 -24 -23 -23 -22 -23 -23 -23 -22 -22 -21 -21 -21 -21 -21 -21 -21 -21 -22 -21 -21 -21 -21 -21 -21 -21 -22 -22 -22 -22 -22 -21 -20 -20 -20 -20 -20 -20 -20 -21 -21
-27 -26 -26 -26 -25 -25 -24 -24 -24 -23 -23 -23 -23 -22 -22 -22 -22 -22 -21 -21 -21 -21 -21 -21 -21 -22 -21 -21 -21 -21 -21 -22 -22 -22 -22 -22 -21 -20 -20 -20 -20 -20 -19 -20 -21 -21 -22
-27 -27 -27 -26 -25 -25 -24 -24 -23 -23 -22 -22 -23 -22 -22 -22 -22 -21 -21 -21 -21 -21 -21 -22 -22 -21 -21 -22 -22 -22 -22 -23 -23 -22 -22 -21 -21 -20 -21 -20 -19 -20 -20 -20 -21 -21 -22
-28 -27 -27 -26 -26 -25 -25 -24 -23 -23 -22 -22 -21 -22 -22 -22 -22 -21 -21 -21 -21 -21 -21 -21 -21 -21 -22 -22 -23 -23 -23 -23 -22 -22 -21 -21 -20 -20 -20 -20 -19 -21 -21 -21 -21 -22 -22
-28 -28 -27 -27 -26 -25 -24 -24 -24 -23 -23 -22 -22 -22 -22 -21 -21 -21 -21 -21 -21 -21 -21 -21 -23 -23 -23 -23 -23 -23 -23 -23 -22 -22 -21 -20 -21 -21 -20 -20 -20 -21 -21 -22 -23 -23 -23

GFSGBSN_500_temp_138.txt.gz
Temp
-13 -13 -13 -13 -13 -13 -13 -13 -13 -13 -13 -13 -13 -13 -13 -13 -13 -13 -13 -13 -13 -12 -12 -12 -12 -12 -12 -12 -12 -12 -12 -12 -12 -12 -12 -12 -12 -12 -12 -12 -12 -11 -11 -12 -12 -12 -12
-13 -13 -13 -13 -13 -13 -13 -13 -13 -13 -14 -13 -13 -14 -14 -13 -13 -13 -13 -13 -13 -13 -13 -13 -13 -13 -12 -12 -12 -12 -12 -12 -12 -12 -12 -12 -12 -11 -12 -12 -12 -12 -12 -11 -11 -12 -11
-13 -13 -14 -14 -14 -14 -14 -14 -14 -14 -14 -14 -14 -14 -14 -14 -14 -14 -13 -13 -13 -13 -13 -13 -13 -13 -13 -13 -13 -12 -12 -12 -12 -12 -12 -12 -12 -12 -12 -12 -12 -12 -12 -12 -12 -12 -12
-14 -14 -14 -14 -15 -15 -15 -15 -15 -15 -14 -14 -14 -14 -14 -14 -14 -14 -14 -14 -14 -13 -13 -13 -13 -13 -13 -13 -12 -13 -13 -13 -13 -12 -12 -12 -12 -12 -12 -12 -12 -12 -12 -12 -12 -12 -12
-14 -14 -15 -15 -15 -15 -16 -16 -15 -15 -15 -15 -15 -15 -14 -14 -14 -14 -14 -14 -14 -14 -14 -13 -13 -13 -13 -13 -13 -13 -13 -13 -13 -13 -13 -12 -12 -12 -12 -12 -12 -12 -12 -12 -13 -12 -12
-15 -15 -15 -16 -16 -16 -16 -16 -16 -16 -15 -15 -15 -15 -15 -15 -15 -14 -14 -14 -14 -14 -13 -14 -13 -13 -13 -13 -13 -13 -13 -13 -13 -13 -13 -13 -12 -12 -12 -12 -12 -12 -12 -12 -13 -13 -12
-16 -16 -16 -17 -16 -17 -17 -17 -16 -16 -16 -16 -16 -16 -15 -15 -15 -15 -14 -15 -14 -14 -14 -14 -14 -13 -13 -13 -13 -13 -13 -13 -13 -13 -13 -13 -13 -13 -13 -12 -12 -12 -12 -12 -13 -13 -13
-16 -16 -16 -17 -17 -17 -17 -17 -16 -16 -16 -16 -16 -16 -16 -16 -15 -15 -14 -15 -15 -15 -14 -14 -14 -14 -14 -14 -13 -13 -13 -14 -13 -13 -13 -13 -12 -13 -13 -13 -13 -13 -13 -13 -13 -14 -13
-17 -17 -17 -17 -17 -17 -17 -17 -17 -16 -16 -16 -16 -16 -16 -16 -16 -16 -15 -15 -15 -15 -14 -14 -14 -14 -14 -14 -13 -13 -13 -13 -14 -13 -14 -13 -13 -13 -13 -13 -13 -13 -13 -13 -13 -14 -14
-18 -18 -17 -17 -17 -17 -17 -17 -17 -17 -17 -16 -16 -16 -16 -16 -16 -16 -16 -16 -15 -16 -15 -14 -14 -14 -14 -14 -14 -14 -14 -14 -14 -14 -14 -13 -14 -14 -14 -13 -14 -14 -15 -14 -14 -15 -15
-18 -18 -18 -18 -18 -18 -18 -18 -18 -18 -18 -17 -17 -17 -16 -16 -17 -17 -17 -17 -17 -16 -16 -15 -13 -13 -14 -14 -14 -14 -15 -14 -14 -14 -14 -14 -14 -15 -15 -15 -15 -14 -14 -15 -15 -16 -15
-20 -19 -20 -20 -19 -19 -19 -18 -18 -18 -18 -18 -18 -17 -17 -17 -17 -18 -18 -18 -18 -18 -15 -16 -14 -14 -15 -16 -16 -16 -15 -16 -15 -15 -15 -14 -16 -15 -15 -16 -16 -15 -15 -16 -17 -16 -15
-20 -19 -19 -19 -19 -19 -19 -19 -19 -19 -19 -19 -18 -18 -18 -18 -19 -19 -19 -19 -20 -18 -16 -16 -16 -16 -16 -16 -17 -18 -17 -17 -17 -17 -17 -17 -15 -17 -17 -16 -16 -16 -16 -17 -16 -17 -16
-20 -20 -20 -20 -20 -20 -20 -20 -20 -20 -20 -20 -20 -19 -19 -19 -20 -20 -21 -21 -21 -18 -18 -19 -19 -18 -18 -18 -19 -19 -19 -18 -18 -19 -19 -18 -17 -17 -18 -17 -18 -17 -17 -17 -17 -17 -17
-21 -21 -20 -20 -20 -20 -20 -21 -21 -21 -21 -21 -21 -20 -20 -20 -21 -21 -21 -21 -19 -20 -20 -21 -22 -21 -20 -20 -20 -20 -20 -19 -20 -20 -19 -20 -19 -19 -18 -18 -18 -17 -17 -19 -18 -18 -18
-21 -21 -21 -21 -21 -21 -21 -21 -21 -21 -21 -21 -21 -21 -20 -21 -21 -21 -22 -20 -20 -21 -21 -22 -21 -21 -20 -20 -20 -21 -20 -20 -21 -20 -21 -20 -19 -20 -19 -19 -18 -18 -18 -19 -19 -19 -18
-22 -21 -21 -21 -21 -21 -21 -21 -21 -21 -22 -21 -21 -21 -20 -22 -22 -22 -21 -20 -21 -22 -22 -22 -22 -21 -21 -21 -21 -21 -21 -21 -21 -21 -21 -21 -21 -20 -20 -19 -19 -19 -19 -19 -20 -19 -19
-22 -22 -22 -22 -21 -21 -21 -21 -21 -22 -22 -21 -21 -21 -21 -22 -22 -22 -21 -21 -22 -22 -22 -22 -22 -22 -21 -22 -21 -21 -21 -21 -22 -21 -21 -21 -21 -20 -20 -20 -20 -20 -20 -20 -19 -19 -20
-23 -23 -22 -22 -22 -22 -22 -22 -22 -22 -22 -22 -22 -22 -22 -22 -22 -22 -22 -22 -22 -22 -23 -23 -22 -22 -22 -22 -21 -21 -21 -21 -21 -21 -21 -21 -21 -21 -20 -20 -20 -21 -20 -20 -20 -20 -20
-23 -23 -23 -22 -22 -22 -22 -22 -22 -23 -23 -22 -22 -22 -22 -22 -22 -22 -22 -22 -22 -22 -23 -23 -23 -23 -22 -22 -22 -21 -21 -21 -22 -21 -22 -22 -21 -21 -21 -21 -21 -20 -21 -20 -21 -20 -20
-24 -23 -23 -23 -22 -22 -22 -22 -22 -23 -23 -23 -23 -22 -22 -22 -22 -22 -22 -22 -22 -22 -22 -22 -22 -22 -22 -22 -22 -22 -21 -22 -22 -22 -21 -22 -21 -21 -21 -21 -21 -21 -20 -21 -20 -21 -21
-25 -25 -24 -24 -23 -23 -23 -23 -23 -23 -23 -23 -23 -23 -22 -22 -23 -22 -21 -21 -21 -22 -22 -22 -22 -22 -22 -22 -22 -22 -22 -22 -22 -21 -22 -22 -21 -21 -22 -22 -21 -21 -21 -20 -21 -21 -21
-26 -25 -25 -25 -24 -24 -24 -23 -23 -23 -23 -23 -23 -22 -22 -22 -21 -21 -21 -21 -21 -22 -22 -22 -22 -22 -22 -22 -23 -23 -22 -22 -22 -22 -22 -22 -22 -22 -22 -21 -22 -21 -21 -21 -21 -21 -21
-26 -26 -25 -25 -25 -24 -24 -24 -24 -24 -23 -23 -22 -22 -23 -22 -22 -22 -22 -22 -21 -22 -22 -22 -22 -22 -22 -23 -22 -22 -23 -22 -22 -21 -21 -21 -23 -23 -23 -23 -21 -21 -21 -21 -21 -21 -21
-26 -26 -26 -25 -25 -25 -24 -24 -24 -23 -23 -23 -23 -23 -23 -23 -23 -22 -22 -22 -22 -22 -23 -22 -22 -22 -22 -22 -22 -23 -22 -22 -21 -21 -21 -23 -23 -23 -23 -22 -21 -20 -20 -21 -21 -21 -21
-27 -26 -26 -26 -25 -25 -25 -24 -24 -24 -23 -23 -23 -23 -23 -23 -24 -22 -21 -22 -21 -21 -21 -21 -21 -21 -22 -22 -22 -22 -21 -21 -21 -21 -22 -22 -22 -22 -22 -21 -20 -21 -20 -20 -20 -21 -21
-27 -27 -26 -26 -25 -25 -25 -24 -24 -24 -24 -23 -23 -23 -23 -23 -23 -22 -22 -21 -21 -21 -21 -22 -22 -22 -22 -22 -22 -22 -22 -22 -22 -22 -22 -22 -22 -22 -22 -21 -20 -20 -20 -20 -20 -21 -21
-28 -27 -27 -26 -26 -26 -25 -25 -25 -25 -24 -23 -23 -22 -23 -23 -23 -22 -22 -22 -22 -22 -22 -22 -22 -22 -22 -23 -22 -22 -22 -22 -23 -23 -22 -22 -22 -22 -21 -20 -20 -21 -20 -20 -20 -21 -22
-28 -28 -28 -27 -27 -26 -26 -25 -25 -24 -24 -23 -23 -22 -22 -23 -23 -23 -22 -22 -22 -21 -21 -22 -22 -23 -23 -23 -23 -23 -23 -23 -23 -23 -22 -22 -22 -21 -21 -21 -20 -20 -20 -20 -20 -21 -22